Time,TemperatureF,DewpointF,PressureIn,WindDirection,WindDirectionDegrees,WindSpeedMPH,WindSpeedGustMPH,Humidity,HourlyPrecipIn,Conditions,Clouds,dailyrainin,SoftwareType,DateUTC
2013-02-21 00:03:00,14.0,9.0,30.21,North,5,9.0,14.0,81,-99.99,,,-99.99,,2013-02-21 05:03:00,
2013-02-21 00:12:00,14.0,9.0,30.21,North,5,9.0,14.0,81,-99.99,,,-99.99,,2013-02-21 05:12:00,
2013-02-21 00:22:00,13.0,9.0,30.22,NW,310,11.0,21.0,81,-99.99,,,-99.99,,2013-02-21 05:22:00,
2013-02-21 00:36:00,13.0,9.0,30.22,NNW,345,6.0,20.0,81,-99.99,,,-99.99,,2013-02-21 05:36:00,
2013-02-21 00:46:00,13.0,9.0,30.22,NNW,345,6.0,20.0,81,-99.99,,,-99.99,,2013-02-21 05:46:00,
2013-02-21 00:54:00,13.0,8.0,30.22,North,0,9.0,19.0,81,-99.99,,,-99.99,,2013-02-21 05:54:00,
2013-02-21 01:01:00,13.0,8.0,30.22,North,0,9.0,19.0,81,-99.99,,,-99.99,,2013-02-21 06:01:00,
2013-02-21 01:11:00,12.0,8.0,30.22,NW,310,7.0,14.0,81,-99.99,,,-99.99,,2013-02-21 06:11:00,
2013-02-21 01:21:00,12.0,8.0,30.22,NW,310,7.0,14.0,81,-99.99,,,-99.99,,2013-02-21 06:21:00,
2013-02-21 01:31:00,12.0,7.0,30.22,NNW,335,6.0,14.0,81,-99.99,,,-99.99,,2013-02-21 06:31:00,
2013-02-21 01:41:00,12.0,7.0,-100.00,NNW,335,6.0,14.0,81,-99.99,,,-99.99,,2013-02-21 06:41:00,
2013-02-21 01:51:00,12.0,7.0,30.24,NNW,330,8.0,20.0,81,-99.99,,,-99.99,,2013-02-21 06:51:00,
2013-02-21 02:01:00,12.0,7.0,30.24,North,5,5.0,17.0,81,-99.99,,,-99.99,,2013-02-21 07:01:00,
2013-02-21 02:11:00,12.0,7.0,30.24,North,5,5.0,17.0,81,-99.99,,,-99.99,,2013-02-21 07:11:00,
2013-02-21 02:21:00,11.0,7.0,30.24,NNW,335,7.0,14.0,82,-99.99,,,-99.99,,2013-02-21 07:21:00,
2013-02-21 02:32:00,11.0,6.0,30.24,NNW,340,9.0,20.0,81,-99.99,,,-99.99,,2013-02-21 07:32:00,
2013-02-21 02:42:00,11.0,6.0,30.24,NNW,340,9.0,20.0,81,-99.99,,,-99.99,,2013-02-21 07:42:00,
2013-02-21 02:52:00,11.0,6.0,30.24,North,5,6.0,19.0,81,-99.99,,,-99.99,,2013-02-21 07:52:00,
2013-02-21 03:02:00,11.0,7.0,30.24,NNW,345,6.0,21.0,82,-99.99,,,-99.99,,2013-02-21 08:02:00,
2013-02-21 03:11:00,11.0,7.0,30.24,NNW,345,6.0,21.0,82,-99.99,,,-99.99,,2013-02-21 08:11:00,
2013-02-21 03:20:00,11.0,7.0,-100.00,North,10,9.0,13.0,82,-99.99,,,-99.99,,2013-02-21 08:20:00,
2013-02-21 03:21:00,11.0,7.0,30.25,NW,315,5.0,19.0,82,-99.99,,,-99.99,,2013-02-21 08:21:00,
2013-02-21 03:32:00,11.0,7.0,30.25,NW,320,5.0,15.0,82,-99.99,,,-99.99,,2013-02-21 08:32:00,
2013-02-21 03:42:00,11.0,7.0,30.25,NW,320,5.0,15.0,82,-99.99,,,-99.99,,2013-02-21 08:42:00,
2013-02-21 03:52:00,11.0,7.0,30.25,North,350,6.0,16.0,82,-99.99,,,-99.99,,2013-02-21 08:52:00,
2013-02-21 04:02:00,11.0,7.0,30.25,North,10,9.0,13.0,82,-99.99,,,-99.99,,2013-02-21 09:02:00,
2013-02-21 04:11:00,11.0,7.0,-100.00,North,10,9.0,13.0,82,-99.99,,,-99.99,,2013-02-21 09:11:00,
2013-02-21 07:11:00,12.0,8.0,30.31,NNW,330,6.0,12.0,83,-99.99,,,-99.99,,2013-02-21 12:11:00,
2013-02-21 07:22:00,12.0,8.0,30.31,NNW,330,6.0,12.0,83,-99.99,,,-99.99,,2013-02-21 12:22:00,
2013-02-21 07:32:00,12.0,8.0,30.31,North,0,4.0,12.0,83,-99.99,,,-99.99,,2013-02-21 12:32:00,
2013-02-21 07:43:00,12.0,8.0,30.33,NNE,20,4.0,11.0,83,-99.99,,,-99.99,,2013-02-21 12:43:00,
2013-02-21 07:52:00,12.0,8.0,30.33,NNE,20,4.0,11.0,83,-99.99,,,-99.99,,2013-02-21 12:52:00,
2013-02-21 08:02:00,12.0,8.0,30.33,North,5,4.0,13.0,84,-99.99,,,-99.99,,2013-02-21 13:02:00,
2013-02-21 08:12:00,12.0,8.0,30.33,North,0,4.0,6.0,84,-99.99,,,-99.99,,2013-02-21 13:12:00,
2013-02-21 08:22:00,12.0,8.0,30.33,North,0,4.0,6.0,84,-99.99,,,-99.99,,2013-02-21 13:22:00,
2013-02-21 08:32:00,12.0,8.0,30.34,North,355,4.0,8.0,84,-99.99,,,-99.99,,2013-02-21 13:32:00,
2013-02-21 08:42:00,12.0,8.0,30.34,North,355,4.0,8.0,84,-99.99,,,-99.99,,2013-02-21 13:42:00,
2013-02-21 08:51:00,12.0,8.0,30.35,NNW,330,5.0,11.0,84,-99.99,,,-99.99,,2013-02-21 13:51:00,
2013-02-21 09:02:00,12.0,8.0,30.36,North,5,2.0,8.0,84,-99.99,,,-99.99,,2013-02-21 14:02:00,
2013-02-21 09:11:00,12.0,8.0,30.36,North,5,2.0,8.0,84,-99.99,,,-99.99,,2013-02-21 14:11:00,
2013-02-21 09:22:00,11.0,7.0,30.38,East,85,4.0,6.0,83,-99.99,,,-99.99,,2013-02-21 14:22:00,
2013-02-21 09:32:00,10.0,6.0,30.39,East,80,4.0,8.0,83,-99.99,,,-99.99,,2013-02-21 14:32:00,
2013-02-21 09:42:00,10.0,6.0,30.39,East,80,4.0,8.0,83,-99.99,,,-99.99,,2013-02-21 14:42:00,
2013-02-21 09:52:00,11.0,7.0,30.39,NE,50,3.0,5.0,83,-99.99,,,-99.99,,2013-02-21 14:52:00,
2013-02-21 10:02:00,13.0,8.0,30.37,NW,320,2.0,5.0,82,-99.99,,,-99.99,,2013-02-21 15:02:00,
2013-02-21 10:12:00,13.0,8.0,30.37,NW,320,2.0,5.0,82,-99.99,,,-99.99,,2013-02-21 15:12:00,
2013-02-21 10:22:00,13.0,8.0,30.36,NW,310,4.0,10.0,80,-99.99,,,-99.99,,2013-02-21 15:22:00,
2013-02-21 10:32:00,14.0,9.0,30.36,North,5,3.0,11.0,79,-99.99,,,-99.99,,2013-02-21 15:32:00,
2013-02-21 10:42:00,14.0,9.0,-100.00,North,5,3.0,11.0,79,-99.99,,,-99.99,,2013-02-21 15:42:00,
2013-02-21 10:52:00,14.0,8.0,30.35,NNW,330,6.0,14.0,78,-99.99,,,-99.99,,2013-02-21 15:52:00,
2013-02-21 11:02:00,15.0,9.0,30.34,North,0,5.0,19.0,76,-99.99,,,-99.99,,2013-02-21 16:02:00,
2013-02-21 11:12:00,15.0,9.0,-100.00,North,0,5.0,19.0,76,-99.99,,,-99.99,,2013-02-21 16:12:00,
2013-02-21 11:22:00,15.0,8.0,30.34,NW,320,4.0,14.0,74,-99.99,,,-99.99,,2013-02-21 16:22:00,
2013-02-21 11:32:00,15.0,8.0,30.33,NNE,20,11.0,17.0,72,-99.99,,,-99.99,,2013-02-21 16:32:00,
2013-02-21 11:42:00,15.0,8.0,-100.00,NNE,20,11.0,17.0,72,-99.99,,,-99.99,,2013-02-21 16:42:00,
2013-02-21 11:52:00,16.0,9.0,30.31,NNE,30,9.0,17.0,73,-99.99,,,-99.99,,2013-02-21 16:52:00,
2013-02-21 12:02:00,16.0,9.0,-100.00,NNE,30,9.0,17.0,73,-99.99,,,-99.99,,2013-02-21 17:02:00,
2013-02-21 12:21:00,17.0,9.0,30.31,North,10,7.0,17.0,71,-99.99,,,-99.99,,2013-02-21 17:21:00,
2013-02-21 12:32:00,16.0,9.0,30.31,North,350,6.0,13.0,71,-99.99,,,-99.99,,2013-02-21 17:32:00,
2013-02-21 12:42:00,16.0,9.0,30.31,North,350,6.0,13.0,71,-99.99,,,-99.99,,2013-02-21 17:42:00,
2013-02-21 12:52:00,19.0,10.0,30.35,South,180,4.0,10.0,67,-99.99,,,-99.99,,2013-02-21 17:52:00,
2013-02-21 13:02:00,19.0,10.0,30.35,South,180,4.0,10.0,67,-99.99,,,-99.99,,2013-02-21 18:02:00,
2013-02-21 13:22:00,20.0,9.0,30.36,South,190,4.0,8.0,64,-99.99,,,-99.99,,2013-02-21 18:22:00,
2013-02-21 13:32:00,19.0,9.0,30.36,SSW,210,4.0,7.0,66,-99.99,,,-99.99,,2013-02-21 18:32:00,
2013-02-21 13:42:00,19.0,9.0,30.36,SSW,210,4.0,7.0,66,-99.99,,,-99.99,,2013-02-21 18:42:00,
2013-02-21 13:51:00,19.0,10.0,30.37,SSW,205,6.0,8.0,67,-99.99,,,-99.99,,2013-02-21 18:51:00,
2013-02-21 14:02:00,19.0,10.0,30.36,South,185,6.0,7.0,68,-99.99,,,-99.99,,2013-02-21 19:02:00,
2013-02-21 14:12:00,19.0,10.0,30.36,South,185,6.0,7.0,68,-99.99,,,-99.99,,2013-02-21 19:12:00,
2013-02-21 14:21:00,17.0,10.0,30.36,SSE,155,10.0,13.0,71,-99.99,,,-99.99,,2013-02-21 19:21:00,
2013-02-21 14:32:00,17.0,9.0,30.37,South,170,10.0,14.0,72,-99.99,,,-99.99,,2013-02-21 19:32:00,
2013-02-21 14:42:00,17.0,9.0,30.37,South,170,10.0,14.0,72,-99.99,,,-99.99,,2013-02-21 19:42:00,
2013-02-21 14:52:00,17.0,10.0,30.36,SSE,150,7.0,10.0,73,-99.99,,,-99.99,,2013-02-21 19:52:00,
2013-02-21 15:01:00,17.0,9.0,30.36,SE,140,6.0,7.0,71,-99.99,,,-99.99,,2013-02-21 20:01:00,
2013-02-21 15:11:00,17.0,9.0,30.36,SE,140,6.0,7.0,71,-99.99,,,-99.99,,2013-02-21 20:11:00,
2013-02-21 15:21:00,17.0,10.0,30.36,SE,135,4.0,6.0,72,-99.99,,,-99.99,,2013-02-21 20:21:00,
2013-02-21 15:32:00,18.0,10.0,30.36,SSE,165,5.0,6.0,70,-99.99,,,-99.99,,2013-02-21 20:32:00,
2013-02-21 15:42:00,18.0,10.0,30.36,SSE,165,5.0,6.0,70,-99.99,,,-99.99,,2013-02-21 20:42:00,
2013-02-21 15:52:00,19.0,10.0,30.35,SSW,195,4.0,5.0,68,-99.99,,,-99.99,,2013-02-21 20:52:00,
2013-02-21 16:02:00,19.0,10.0,30.34,SSW,200,3.0,5.0,67,-99.99,,,-99.99,,2013-02-21 21:02:00,
2013-02-21 16:12:00,19.0,10.0,30.34,SSW,200,3.0,5.0,67,-99.99,,,-99.99,,2013-02-21 21:12:00,
2013-02-21 16:22:00,20.0,10.0,30.35,South,190,4.0,5.0,65,-99.99,,,-99.99,,2013-02-21 21:22:00,
2013-02-21 16:32:00,20.0,10.0,30.34,SSE,160,3.0,4.0,66,-99.99,,,-99.99,,2013-02-21 21:32:00,
2013-02-21 16:42:00,20.0,10.0,30.34,SSE,160,3.0,4.0,66,-99.99,,,-99.99,,2013-02-21 21:42:00,
2013-02-21 16:52:00,20.0,11.0,30.33,WSW,255,1.0,5.0,67,-99.99,,,-99.99,,2013-02-21 21:52:00,
2013-02-21 17:01:00,22.0,14.0,30.33,NNE,15,9.0,14.0,70,-99.99,,,-99.99,,2013-02-21 22:01:00,
2013-02-21 17:11:00,22.0,14.0,30.33,NNE,15,9.0,14.0,70,-99.99,,,-99.99,,2013-02-21 22:11:00,
2013-02-21 17:21:00,22.0,14.0,30.33,NNE,25,6.0,14.0,72,-99.99,,,-99.99,,2013-02-21 22:21:00,
2013-02-21 17:32:00,22.0,14.0,30.32,NNE,25,3.0,10.0,73,-99.99,,,-99.99,,2013-02-21 22:32:00,
2013-02-21 17:42:00,22.0,14.0,30.32,NNE,25,3.0,10.0,73,-99.99,,,-99.99,,2013-02-21 22:42:00,
2013-02-21 17:52:00,21.0,14.0,30.31,North,0,8.0,14.0,75,-99.99,,,-99.99,,2013-02-21 22:52:00,
2013-02-21 18:01:00,21.0,14.0,30.31,North,0,8.0,14.0,75,-99.99,,,-99.99,,2013-02-21 23:01:00,
2013-02-21 18:21:00,20.0,14.0,30.32,North,5,4.0,12.0,79,-99.99,,,-99.99,,2013-02-21 23:21:00,
2013-02-21 18:32:00,18.0,14.0,30.33,NNE,15,4.0,9.0,81,-99.99,,,-99.99,,2013-02-21 23:32:00,
2013-02-21 18:42:00,18.0,14.0,30.33,NNE,15,4.0,9.0,81,-99.99,,,-99.99,,2013-02-21 23:42:00,
2013-02-21 18:52:00,17.0,13.0,30.35,NNE,25,3.0,6.0,83,-99.99,,,-99.99,,2013-02-21 23:52:00,
2013-02-21 19:02:00,17.0,13.0,30.35,NNE,25,3.0,6.0,83,-99.99,,,-99.99,,2013-02-22 00:02:00,
2013-02-21 19:11:00,17.0,13.0,30.35,NNE,25,3.0,6.0,83,-99.99,,,-99.99,,2013-02-22 00:11:00,
2013-02-21 19:22:00,16.0,12.0,30.34,North,10,4.0,6.0,84,-99.99,,,-99.99,,2013-02-22 00:22:00,
2013-02-21 19:32:00,16.0,12.0,30.34,NNE,25,3.0,6.0,85,-99.99,,,-99.99,,2013-02-22 00:32:00,
2013-02-21 19:42:00,16.0,12.0,30.34,NNE,25,3.0,6.0,85,-99.99,,,-99.99,,2013-02-22 00:42:00,
2013-02-21 19:52:00,15.0,11.0,30.33,North,355,2.0,4.0,86,-99.99,,,-99.99,,2013-02-22 00:52:00,
2013-02-21 20:01:00,14.0,11.0,30.33,North,355,2.0,4.0,87,-99.99,,,-99.99,,2013-02-22 01:01:00,
2013-02-21 20:11:00,14.0,11.0,30.33,North,355,2.0,4.0,87,-99.99,,,-99.99,,2013-02-22 01:11:00,
2013-02-21 20:22:00,13.0,10.0,30.33,North,10,1.0,2.0,87,-99.99,,,-99.99,,2013-02-22 01:22:00,
2013-02-21 20:32:00,13.0,10.0,30.32,NNE,15,1.0,2.0,88,-99.99,,,-99.99,,2013-02-22 01:32:00,
2013-02-21 20:42:00,13.0,10.0,30.32,NNE,15,1.0,2.0,88,-99.99,,,-99.99,,2013-02-22 01:42:00,
2013-02-21 20:50:00,10.0,8.0,30.32,North,5,1.0,3.0,89,-99.99,,,-99.99,,2013-02-22 01:50:00,
2013-02-21 20:51:00,11.0,9.0,30.33,North,10,1.0,4.0,89,-99.99,,,-99.99,,2013-02-22 01:51:00,
2013-02-21 21:02:00,11.0,8.0,30.33,North,5,2.0,4.0,88,-99.99,,,-99.99,,2013-02-22 02:02:00,
2013-02-21 21:11:00,11.0,8.0,30.33,North,5,2.0,4.0,88,-99.99,,,-99.99,,2013-02-22 02:11:00,
2013-02-21 21:22:00,10.0,8.0,30.33,North,0,1.0,4.0,89,-99.99,,,-99.99,,2013-02-22 02:22:00,
2013-02-21 21:32:00,10.0,8.0,30.32,North,5,1.0,3.0,89,-99.99,,,-99.99,,2013-02-22 02:32:00,
2013-02-21 21:42:00,10.0,8.0,30.32,North,5,1.0,3.0,89,-99.99,,,-99.99,,2013-02-22 02:42:00,
2013-02-21 22:02:00,9.0,7.0,30.31,NNE,15,2.0,4.0,89,-99.99,,,-99.99,,2013-02-22 03:02:00,
2013-02-21 22:22:00,9.0,7.0,30.31,North,5,2.0,4.0,89,-99.99,,,-99.99,,2013-02-22 03:22:00,
2013-02-21 22:32:00,9.0,7.0,30.32,North,5,1.0,4.0,89,-99.99,,,-99.99,,2013-02-22 03:32:00,
2013-02-21 22:42:00,9.0,7.0,30.32,North,5,1.0,4.0,89,-99.99,,,-99.99,,2013-02-22 03:42:00,
2013-02-21 22:52:00,10.0,7.0,30.33,NW,320,1.0,2.0,89,-99.99,,,-99.99,,2013-02-22 03:52:00,
2013-02-21 23:02:00,9.0,6.0,30.32,North,355,2.0,3.0,88,-99.99,,,-99.99,,2013-02-22 04:02:00,
2013-02-21 23:11:00,9.0,6.0,30.32,North,355,2.0,3.0,88,-99.99,,,-99.99,,2013-02-22 04:11:00,
2013-02-21 23:21:00,8.0,6.0,30.32,North,10,1.0,3.0,89,-99.99,,,-99.99,,2013-02-22 04:21:00,
2013-02-21 23:32:00,8.0,5.0,30.33,NNW,340,1.0,3.0,88,-99.99,,,-99.99,,2013-02-22 04:32:00,
2013-02-21 23:42:00,8.0,5.0,30.33,NNW,340,1.0,3.0,88,-99.99,,,-99.99,,2013-02-22 04:42:00,
2013-02-21 23:51:00,7.0,4.0,30.32,North,10,3.0,4.0,88,-99.99,,,-99.99,,2013-02-22 04:51:00,